Flag Weather past 2 weeks in Zarqa, Jordan

Now
48 °F

Passing clouds.


Feels Like: 45 °F
Forecast: 47 / 59 °F
Wind: 7 mph from West

Location: Amman Airport

Current Time: Nov 28, 2014 at 6:50:25 AM

Latest Report: Nov 28, 2014 at 6:00 AM


Visibility: 2 mi

Pressure: 30.18 "Hg

Humidity: 87%

Dew point: 45 °F

Location of ZarqaLocation

Historic Weather in Zarqa — Graph

°F

Zarqa temperature yesterday

Maximum temperature yesterday: 50 °F (at 12:00 AM)
Minimum temperature yesterday: 48 °F (at 5:00 AM)
Average temperature yesterday: 49 °F

Past Weeks' High & Low Weather Summary

 TemperatureHumidityPressure
High75 °F (Nov 14, 3:00 PM)100% (Nov 26, 2:00 AM)30.27 "Hg (Nov 26, 2:00 AM)
Low46 °F (Nov 25, 6:00 AM)12% (Nov 14, 3:00 PM)29.89 "Hg (Nov 23, 10:00 PM)
Average56 °F67%30.03 "Hg
* Reported Nov 13 5:00 AM — Nov 28 5:00 AM, Zarqa, Weather by CustomWeather, © 2014

Note: Actual official high and low records may vary slightly from our data, if they occured in-between our weather recording intervals... More about our weather records

Advertising

Zarqa weather history for previous 24 hours

 ConditionsComfort  
Time TempWeatherWind HumidityBarometerVisibility
5:00 AM
Nov 28
48 °FPassing clouds.5 mph87%30.15 "Hg2 mi
4:00 AM48 °FHaze.5 mph87%30.15 "Hg2 mi
3:00 AM48 °FHaze.5 mph87%30.15 "Hg2 mi
2:00 AM48 °FHaze.3 mph87%30.12 "Hg2 mi
1:00 AM48 °FPassing clouds.3 mph87%30.12 "Hg2 mi
12:00 AM48 °FPassing clouds.3 mph87%30.12 "Hg2 mi
11:00 PM
Nov 27
48 °FPassing clouds.3 mph87%30.12 "Hg2 mi
10:00 PM48 °FPassing clouds.5 mph87%30.09 "Hg2 mi
9:00 PM48 °FRain. Passing clouds.7 mph87%30.09 "Hg2 mi
7:00 PM50 °FPassing clouds.5 mph88%30.09 "Hg4 mi
6:00 PM50 °FLight rain. Partly cloudy.5 mph88%30.09 "Hg3 mi
5:00 PM50 °FFog.7 mph88%30.07 "Hg3 mi
4:00 PM50 °FFog.7 mph88%30.07 "Hg2 mi
3:00 PM50 °FRain. Broken clouds.7 mph88%30.04 "Hg1 mi
2:00 PM50 °FRain. Broken clouds.6 mph88%30.07 "Hg2 mi
1:00 PM48 °FRain. Broken clouds.6 mph94%30.07 "Hg3 mi
12:00 PM48 °FRain. Broken clouds.6 mph94%30.07 "Hg3 mi
11:00 AM48 °FRain. Broken clouds.6 mph87%30.07 "Hg3 mi
10:00 AM48 °FRain. Broken clouds.6 mph87%30.09 "Hg2 mi
9:00 AM48 °FRain. Broken clouds.7 mph87%30.07 "Hg2 mi
8:00 AM48 °FRain. Broken clouds.7 mph87%30.04 "Hg1 mi
7:00 AM48 °FRain. Broken clouds.5 mph87%30.01 "Hg1 mi
6:00 AM48 °FRain. Partly cloudy.7 mph87%30.01 "Hg2 mi
Weather by CustomWeather, © 2014

See weather overviewHow to use our weather pages